Year,Month,Day,Hour,Minute,Value (Times are PST for temperature in C)
2019,07,26,00,00,15.20
2019,07,26,00,01,15.20
2019,07,26,00,02,15.20
2019,07,26,00,03,15.10
2019,07,26,00,04,15.10
2019,07,26,00,05,15.10
2019,07,26,00,06,15.00
2019,07,26,00,07,15.00
2019,07,26,00,08,14.90
2019,07,26,00,09,14.90
2019,07,26,00,10,14.90
2019,07,26,00,11,14.90
2019,07,26,00,12,14.90
2019,07,26,00,13,14.80
2019,07,26,00,14,14.80
2019,07,26,00,15,14.80
2019,07,26,00,16,14.80
2019,07,26,00,17,14.80
2019,07,26,00,18,14.80
2019,07,26,00,19,14.80
2019,07,26,00,20,14.70
2019,07,26,00,21,14.70
2019,07,26,00,22,14.70
2019,07,26,00,23,14.70
2019,07,26,00,24,14.70
2019,07,26,00,25,14.70
2019,07,26,00,26,14.70
2019,07,26,00,27,14.70
2019,07,26,00,28,14.70
2019,07,26,00,29,14.70
2019,07,26,00,30,14.70
2019,07,26,00,31,14.70
2019,07,26,00,32,14.70
2019,07,26,00,33,14.70
2019,07,26,00,34,14.70
2019,07,26,00,35,14.70
2019,07,26,00,36,14.70
2019,07,26,00,37,14.70
2019,07,26,00,38,14.60
2019,07,26,00,39,14.60
2019,07,26,00,40,14.60
2019,07,26,00,41,14.60
2019,07,26,00,42,14.60
2019,07,26,00,43,14.60
2019,07,26,00,44,14.60
2019,07,26,00,45,14.60
2019,07,26,00,46,14.60
2019,07,26,00,47,14.50
2019,07,26,00,48,14.50
2019,07,26,00,49,14.50
2019,07,26,00,50,14.50
2019,07,26,00,51,14.50
2019,07,26,00,52,14.50
2019,07,26,00,53,14.50
2019,07,26,00,54,14.50
2019,07,26,00,55,14.50
2019,07,26,00,56,14.50
2019,07,26,00,57,14.50
2019,07,26,00,58,14.50
2019,07,26,00,59,14.50
2019,07,26,01,00,14.50
2019,07,26,01,01,14.50
2019,07,26,01,02,14.50
2019,07,26,01,03,14.50
2019,07,26,01,04,14.50
2019,07,26,01,05,14.50
2019,07,26,01,06,14.50
2019,07,26,01,07,14.50
2019,07,26,01,08,14.50
2019,07,26,01,09,14.40
2019,07,26,01,10,14.40
2019,07,26,01,11,14.40
2019,07,26,01,12,14.40
2019,07,26,01,13,14.40
2019,07,26,01,14,14.40
2019,07,26,01,15,14.40
2019,07,26,01,16,14.40
2019,07,26,01,17,14.40
2019,07,26,01,18,14.40
2019,07,26,01,19,14.40
2019,07,26,01,20,14.40
2019,07,26,01,21,14.30
2019,07,26,01,22,14.30
2019,07,26,01,23,14.30
2019,07,26,01,24,14.30
2019,07,26,01,25,14.30
2019,07,26,01,26,14.30
2019,07,26,01,27,14.30
2019,07,26,01,28,14.30
2019,07,26,01,29,14.30
2019,07,26,01,30,14.30
2019,07,26,01,31,14.30
2019,07,26,01,32,14.30
2019,07,26,01,33,14.30
2019,07,26,01,34,14.30
2019,07,26,01,35,14.30
2019,07,26,01,36,14.20
2019,07,26,01,37,14.20
2019,07,26,01,38,14.20
2019,07,26,01,39,14.20
2019,07,26,01,40,14.20
2019,07,26,01,41,14.20
2019,07,26,01,42,14.20
2019,07,26,01,43,14.10
2019,07,26,01,44,14.10
2019,07,26,01,45,14.10
2019,07,26,01,46,14.10
2019,07,26,01,47,14.10
2019,07,26,01,48,14.10
2019,07,26,01,49,14.00
2019,07,26,01,50,14.00
2019,07,26,01,51,14.00
2019,07,26,01,52,13.90
2019,07,26,01,53,13.90
2019,07,26,01,54,13.90
2019,07,26,01,55,13.90
2019,07,26,01,56,13.90
2019,07,26,01,57,13.90
2019,07,26,01,58,13.90
2019,07,26,01,59,14.00
2019,07,26,02,00,14.00
2019,07,26,02,01,14.00
2019,07,26,02,02,14.00
2019,07,26,02,03,13.90
2019,07,26,02,04,13.90
2019,07,26,02,05,13.90
2019,07,26,02,06,13.90
2019,07,26,02,07,13.90
2019,07,26,02,08,13.90
2019,07,26,02,09,13.90
2019,07,26,02,10,13.90
2019,07,26,02,11,13.90
2019,07,26,02,12,13.80
2019,07,26,02,13,13.80
2019,07,26,02,14,13.80
2019,07,26,02,15,13.80
2019,07,26,02,16,13.80
2019,07,26,02,17,13.80
2019,07,26,02,18,13.80
2019,07,26,02,19,13.80
2019,07,26,02,20,13.70
2019,07,26,02,21,13.70
2019,07,26,02,22,13.70
2019,07,26,02,23,13.60
2019,07,26,02,24,13.60
2019,07,26,02,25,13.60
2019,07,26,02,26,13.60
2019,07,26,02,27,13.50
2019,07,26,02,28,13.50
2019,07,26,02,29,13.50
2019,07,26,02,30,13.50
2019,07,26,02,31,13.50
2019,07,26,02,32,13.50
2019,07,26,02,33,13.50
2019,07,26,02,34,13.50
2019,07,26,02,35,13.50
2019,07,26,02,36,13.50
2019,07,26,02,37,13.40
2019,07,26,02,38,13.40
2019,07,26,02,39,13.40
2019,07,26,02,40,13.40
2019,07,26,02,41,13.40
2019,07,26,02,42,13.40
2019,07,26,02,43,13.40
2019,07,26,02,44,13.40
2019,07,26,02,45,13.40
2019,07,26,02,46,13.40
2019,07,26,02,47,13.40
2019,07,26,02,48,13.40
2019,07,26,02,49,13.40
2019,07,26,02,50,13.50
2019,07,26,02,51,13.50
2019,07,26,02,52,13.50
2019,07,26,02,53,13.50
2019,07,26,02,54,13.50
2019,07,26,02,55,13.50
2019,07,26,02,56,13.50
2019,07,26,02,57,13.50
2019,07,26,02,58,13.50
2019,07,26,02,59,13.50
2019,07,26,03,00,13.50
2019,07,26,03,01,13.50
2019,07,26,03,02,13.40
2019,07,26,03,03,13.40
2019,07,26,03,04,13.40
2019,07,26,03,05,13.40
2019,07,26,03,06,13.40
2019,07,26,03,07,13.40
2019,07,26,03,08,13.40
2019,07,26,03,09,13.40
2019,07,26,03,10,13.40
2019,07,26,03,11,13.40
2019,07,26,03,12,13.30
2019,07,26,03,13,13.30
2019,07,26,03,14,13.30
2019,07,26,03,15,13.30
2019,07,26,03,16,13.30
2019,07,26,03,17,13.30
2019,07,26,03,18,13.30
2019,07,26,03,19,13.30
2019,07,26,03,20,13.30
2019,07,26,03,21,13.30
2019,07,26,03,22,13.30
2019,07,26,03,23,13.20
2019,07,26,03,24,13.20
2019,07,26,03,25,13.20
2019,07,26,03,26,13.20
2019,07,26,03,27,13.20
2019,07,26,03,28,13.20
2019,07,26,03,29,13.20
2019,07,26,03,30,13.20
2019,07,26,03,31,13.20
2019,07,26,03,32,13.20
2019,07,26,03,33,13.20
2019,07,26,03,34,13.20
2019,07,26,03,35,13.30
2019,07,26,03,36,13.30
2019,07,26,03,37,13.30
2019,07,26,03,38,13.30
2019,07,26,03,39,13.30
2019,07,26,03,40,13.30
2019,07,26,03,41,13.30
2019,07,26,03,42,13.30
2019,07,26,03,43,13.30
2019,07,26,03,44,13.30
2019,07,26,03,45,13.30
2019,07,26,03,46,13.30
2019,07,26,03,47,13.30
2019,07,26,03,48,13.30
2019,07,26,03,49,13.30
2019,07,26,03,50,13.30
2019,07,26,03,51,13.30
2019,07,26,03,52,13.30
2019,07,26,03,53,13.30
2019,07,26,03,54,13.30
2019,07,26,03,55,13.30
2019,07,26,03,56,13.30
2019,07,26,03,57,13.30
2019,07,26,03,58,13.30
2019,07,26,03,59,13.30
2019,07,26,04,00,13.30
2019,07,26,04,01,13.30
2019,07,26,04,02,13.30
2019,07,26,04,03,13.30
2019,07,26,04,04,13.30
2019,07,26,04,05,13.30
2019,07,26,04,06,13.30
2019,07,26,04,07,13.30
2019,07,26,04,08,13.30
2019,07,26,04,09,13.30
2019,07,26,04,10,13.30
2019,07,26,04,11,13.30
2019,07,26,04,12,13.30
2019,07,26,04,13,13.30
2019,07,26,04,14,13.30
2019,07,26,04,15,13.30
2019,07,26,04,16,13.30
2019,07,26,04,17,13.30
2019,07,26,04,18,13.30
2019,07,26,04,19,13.20
2019,07,26,04,20,13.30
2019,07,26,04,21,13.30
2019,07,26,04,22,13.30
2019,07,26,04,23,13.30
2019,07,26,04,24,13.30
2019,07,26,04,25,13.30
2019,07,26,04,26,13.30
2019,07,26,04,27,13.30
2019,07,26,04,28,13.30
2019,07,26,04,29,13.30
2019,07,26,04,30,13.30
2019,07,26,04,31,13.30
2019,07,26,04,32,13.30
2019,07,26,04,33,13.30
2019,07,26,04,34,13.30
2019,07,26,04,35,13.30
2019,07,26,04,36,13.20
2019,07,26,04,37,13.20
2019,07,26,04,38,13.20
2019,07,26,04,39,13.20
2019,07,26,04,40,13.20
2019,07,26,04,41,13.30
2019,07,26,04,42,13.20
2019,07,26,04,43,13.20
2019,07,26,04,44,13.20
2019,07,26,04,45,13.20
2019,07,26,04,46,13.20
2019,07,26,04,47,13.20
2019,07,26,04,48,13.20
2019,07,26,04,49,13.20
2019,07,26,04,50,13.20
2019,07,26,04,51,13.20
2019,07,26,04,52,13.20
2019,07,26,04,53,13.20
2019,07,26,04,54,13.20
2019,07,26,04,55,13.20
2019,07,26,04,56,13.20
2019,07,26,04,57,13.20
2019,07,26,04,58,13.20
2019,07,26,04,59,13.20
2019,07,26,05,00,13.20
2019,07,26,05,01,13.20
2019,07,26,05,02,13.20
2019,07,26,05,03,13.20
2019,07,26,05,04,13.20
2019,07,26,05,05,13.20
2019,07,26,05,06,13.20
2019,07,26,05,07,13.10
2019,07,26,05,08,13.10
2019,07,26,05,09,13.10
2019,07,26,05,10,13.10
2019,07,26,05,11,13.10
2019,07,26,05,12,13.20
2019,07,26,05,13,13.20
2019,07,26,05,14,13.20
2019,07,26,05,15,13.20
2019,07,26,05,16,13.20
2019,07,26,05,17,13.20
2019,07,26,05,18,13.20
2019,07,26,05,19,13.20
2019,07,26,05,20,13.20
2019,07,26,05,21,13.20
2019,07,26,05,22,13.20
2019,07,26,05,23,13.20
2019,07,26,05,24,13.20
2019,07,26,05,25,13.20
2019,07,26,05,26,13.20
2019,07,26,05,27,13.20
2019,07,26,05,28,13.10
2019,07,26,05,29,13.10
2019,07,26,05,30,13.10
2019,07,26,05,31,13.10
2019,07,26,05,32,13.10
2019,07,26,05,33,13.10
2019,07,26,05,34,13.10
2019,07,26,05,35,13.10
2019,07,26,05,36,13.20
2019,07,26,05,37,13.20
2019,07,26,05,38,13.20
2019,07,26,05,39,13.20
2019,07,26,05,40,13.20
2019,07,26,05,41,13.20
2019,07,26,05,42,13.20
2019,07,26,05,43,13.20
2019,07,26,05,44,13.20
2019,07,26,05,45,13.20
2019,07,26,05,46,13.20
2019,07,26,05,47,13.10
2019,07,26,05,48,13.10
2019,07,26,05,49,13.10
2019,07,26,05,50,13.10
2019,07,26,05,51,13.10
2019,07,26,05,52,13.10
2019,07,26,05,53,13.10
2019,07,26,05,54,13.10
2019,07,26,05,55,13.10
2019,07,26,05,56,13.10
2019,07,26,05,57,13.10
2019,07,26,05,58,13.10
2019,07,26,05,59,13.10
2019,07,26,06,00,13.10
2019,07,26,06,01,13.10
2019,07,26,06,02,13.10
2019,07,26,06,03,13.10
2019,07,26,06,04,13.10
2019,07,26,06,05,13.10
2019,07,26,06,06,13.10
2019,07,26,06,07,13.10
2019,07,26,06,08,13.10
2019,07,26,06,09,13.10
2019,07,26,06,10,13.20
2019,07,26,06,11,13.20
2019,07,26,06,12,13.20
2019,07,26,06,13,13.20
2019,07,26,06,14,13.20
2019,07,26,06,15,13.20
2019,07,26,06,16,13.20
2019,07,26,06,17,13.20
2019,07,26,06,18,13.20
2019,07,26,06,19,13.30
2019,07,26,06,20,13.30
2019,07,26,06,21,13.40
2019,07,26,06,22,13.40
2019,07,26,06,23,13.50
2019,07,26,06,24,13.60
2019,07,26,06,25,13.60
2019,07,26,06,26,13.70
2019,07,26,06,27,13.80
2019,07,26,06,28,13.80
2019,07,26,06,29,13.90
2019,07,26,06,30,13.90
2019,07,26,06,31,14.00
2019,07,26,06,32,14.10
2019,07,26,06,33,14.20
2019,07,26,06,34,14.20
2019,07,26,06,35,14.30
2019,07,26,06,36,14.30
2019,07,26,06,37,14.40
2019,07,26,06,38,14.40
2019,07,26,06,39,14.50
2019,07,26,06,40,14.60
2019,07,26,06,41,14.70
2019,07,26,06,42,14.70
2019,07,26,06,43,14.80
2019,07,26,06,44,14.80
2019,07,26,06,45,14.80
2019,07,26,06,46,14.90
2019,07,26,06,47,14.90
2019,07,26,06,48,14.90
2019,07,26,06,49,15.00
2019,07,26,06,50,15.00
2019,07,26,06,51,15.00
2019,07,26,06,52,15.10
2019,07,26,06,53,15.10
2019,07,26,06,54,15.10
2019,07,26,06,55,15.20
2019,07,26,06,56,15.20
2019,07,26,06,57,15.20
2019,07,26,06,58,15.20
2019,07,26,06,59,15.20
2019,07,26,07,00,15.20
2019,07,26,07,01,15.20
2019,07,26,07,02,15.20
2019,07,26,07,03,15.30
2019,07,26,07,04,15.30
2019,07,26,07,05,15.30
2019,07,26,07,06,15.30
2019,07,26,07,07,15.30
2019,07,26,07,08,15.30
2019,07,26,07,09,15.20
2019,07,26,07,10,15.20
2019,07,26,07,11,15.10
2019,07,26,07,12,15.00
2019,07,26,07,13,14.90
2019,07,26,07,14,14.90
2019,07,26,07,15,14.90
2019,07,26,07,16,14.90
2019,07,26,07,17,14.90
2019,07,26,07,18,15.00
2019,07,26,07,19,15.00
2019,07,26,07,20,15.00
2019,07,26,07,21,15.10
2019,07,26,07,22,15.10
2019,07,26,07,23,15.20
2019,07,26,07,24,15.20
2019,07,26,07,25,15.20
2019,07,26,07,26,15.20
2019,07,26,07,27,15.30
2019,07,26,07,28,15.30
2019,07,26,07,29,15.30
2019,07,26,07,30,15.30
2019,07,26,07,31,15.30
2019,07,26,07,32,15.30
2019,07,26,07,33,15.30
2019,07,26,07,34,15.30
2019,07,26,07,35,15.20
2019,07,26,07,36,15.20
2019,07,26,07,37,15.10
2019,07,26,07,38,15.10
2019,07,26,07,39,15.00
2019,07,26,07,40,14.90
2019,07,26,07,41,14.80
2019,07,26,07,42,14.70
2019,07,26,07,43,14.70
2019,07,26,07,44,14.70
2019,07,26,07,45,14.60
2019,07,26,07,46,14.60
2019,07,26,07,47,14.60
2019,07,26,07,48,14.60
2019,07,26,07,49,14.60
2019,07,26,07,50,14.60
2019,07,26,07,51,14.60
2019,07,26,07,52,14.70
2019,07,26,07,53,14.70
2019,07,26,07,54,14.70
2019,07,26,07,55,14.70
2019,07,26,07,56,14.80
2019,07,26,07,57,14.80
2019,07,26,07,58,14.80
2019,07,26,07,59,14.80
2019,07,26,08,00,14.80
2019,07,26,08,01,14.90
2019,07,26,08,02,14.90
2019,07,26,08,03,15.00
2019,07,26,08,04,15.00
2019,07,26,08,05,15.10
2019,07,26,08,06,15.10
2019,07,26,08,07,15.20
2019,07,26,08,08,15.30
2019,07,26,08,09,15.40
2019,07,26,08,10,15.50
2019,07,26,08,11,15.50
2019,07,26,08,12,15.50
2019,07,26,08,13,15.40
2019,07,26,08,14,15.30
2019,07,26,08,15,15.20
2019,07,26,08,16,15.10
2019,07,26,08,17,15.00
2019,07,26,08,18,14.80
2019,07,26,08,19,14.80
2019,07,26,08,20,14.70
2019,07,26,08,21,14.60
2019,07,26,08,22,14.60
2019,07,26,08,23,14.60
2019,07,26,08,24,14.50
2019,07,26,08,25,14.50
2019,07,26,08,26,14.50
2019,07,26,08,27,14.40
2019,07,26,08,28,14.40
2019,07,26,08,29,14.40
2019,07,26,08,30,14.40
2019,07,26,08,31,14.40
2019,07,26,08,32,14.40
2019,07,26,08,33,14.40
2019,07,26,08,34,14.50
2019,07,26,08,35,14.50
2019,07,26,08,36,14.60
2019,07,26,08,37,14.60
2019,07,26,08,38,14.70
2019,07,26,08,39,14.70
2019,07,26,08,40,14.70
2019,07,26,08,41,14.80
2019,07,26,08,42,14.80
2019,07,26,08,43,14.80
2019,07,26,08,44,14.80
2019,07,26,08,45,14.70
2019,07,26,08,46,14.70
2019,07,26,08,47,14.60
2019,07,26,08,48,14.60
2019,07,26,08,49,14.50
2019,07,26,08,50,14.40
2019,07,26,08,51,14.40
2019,07,26,08,52,14.30
2019,07,26,08,53,14.30
2019,07,26,08,54,14.30
2019,07,26,08,55,14.30
2019,07,26,08,56,14.30
2019,07,26,08,57,14.30
2019,07,26,08,58,14.30
2019,07,26,08,59,14.30
2019,07,26,09,00,14.30
2019,07,26,09,01,14.40
2019,07,26,09,02,14.40
2019,07,26,09,03,14.40
2019,07,26,09,04,14.40
2019,07,26,09,05,14.40
2019,07,26,09,06,14.40
2019,07,26,09,07,14.40
2019,07,26,09,08,14.30
2019,07,26,09,09,14.30
2019,07,26,09,10,14.30
2019,07,26,09,11,14.30
2019,07,26,09,12,14.20
2019,07,26,09,13,14.20
2019,07,26,09,14,14.20
2019,07,26,09,15,14.20
2019,07,26,09,16,14.30
2019,07,26,09,17,14.30
2019,07,26,09,18,14.30
2019,07,26,09,19,14.30
2019,07,26,09,20,14.30
2019,07,26,09,21,14.30
2019,07,26,09,22,14.20
2019,07,26,09,23,14.20
2019,07,26,09,24,14.20
2019,07,26,09,25,14.20
2019,07,26,09,26,14.20
2019,07,26,09,27,14.20
2019,07,26,09,28,14.20
2019,07,26,09,29,14.20
2019,07,26,09,30,14.20
2019,07,26,09,31,14.20
2019,07,26,09,32,14.20
2019,07,26,09,33,14.20
2019,07,26,09,34,14.20
2019,07,26,09,35,14.20
2019,07,26,09,36,14.20
2019,07,26,09,37,14.20
2019,07,26,09,38,14.20
2019,07,26,09,39,14.30
2019,07,26,09,40,14.30
2019,07,26,09,41,14.30
2019,07,26,09,42,14.30
2019,07,26,09,43,14.30
2019,07,26,09,44,14.30
2019,07,26,09,45,14.30
2019,07,26,09,46,14.30
2019,07,26,09,47,14.30
2019,07,26,09,48,14.30
2019,07,26,09,49,14.30
2019,07,26,09,50,14.30
2019,07,26,09,51,14.30
2019,07,26,09,52,14.30
2019,07,26,09,53,14.20
2019,07,26,09,54,14.20
2019,07,26,09,55,14.20
2019,07,26,09,56,14.20
2019,07,26,09,57,14.20
2019,07,26,09,58,14.20
2019,07,26,09,59,14.10
2019,07,26,10,00,14.20
2019,07,26,10,01,14.20
2019,07,26,10,02,14.20
2019,07,26,10,03,14.20
2019,07,26,10,04,14.20
2019,07,26,10,05,14.10
2019,07,26,10,06,14.10
2019,07,26,10,07,14.10
2019,07,26,10,08,14.10
2019,07,26,10,09,14.10
2019,07,26,10,10,14.20
2019,07,26,10,11,14.20
2019,07,26,10,12,14.30
2019,07,26,10,13,14.30
2019,07,26,10,14,14.30
2019,07,26,10,15,14.40
2019,07,26,10,16,14.40
2019,07,26,10,17,14.50
2019,07,26,10,18,14.60
2019,07,26,10,19,14.60
2019,07,26,10,20,14.60
2019,07,26,10,21,14.50
2019,07,26,10,22,14.50
2019,07,26,10,23,14.40
2019,07,26,10,24,14.40
2019,07,26,10,25,14.40
2019,07,26,10,26,14.40
2019,07,26,10,27,14.40
2019,07,26,10,28,14.40
2019,07,26,10,29,14.40
2019,07,26,10,30,14.40
2019,07,26,10,31,14.40
2019,07,26,10,32,14.40
2019,07,26,10,33,14.40
2019,07,26,10,34,14.40
2019,07,26,10,35,14.50
2019,07,26,10,36,14.40
2019,07,26,10,37,14.40
2019,07,26,10,38,14.40
2019,07,26,10,39,14.40
2019,07,26,10,40,14.30
2019,07,26,10,41,14.30
2019,07,26,10,42,14.30
2019,07,26,10,43,14.20
2019,07,26,10,44,14.20
2019,07,26,10,45,14.20
2019,07,26,10,46,14.10
2019,07,26,10,47,14.10
2019,07,26,10,48,14.10
2019,07,26,10,49,14.10
2019,07,26,10,50,14.10
2019,07,26,10,51,14.10
2019,07,26,10,52,14.10
2019,07,26,10,53,14.10
2019,07,26,10,54,14.10
2019,07,26,10,55,14.10
2019,07,26,10,56,14.10
2019,07,26,10,57,14.10
2019,07,26,10,58,14.10
2019,07,26,10,59,14.10
2019,07,26,11,00,14.10
2019,07,26,11,01,14.10
2019,07,26,11,02,14.10
2019,07,26,11,03,14.10
2019,07,26,11,04,14.10
2019,07,26,11,05,14.20
2019,07,26,11,06,14.20
2019,07,26,11,07,14.20
2019,07,26,11,08,14.20
2019,07,26,11,09,14.10
2019,07,26,11,10,14.10
2019,07,26,11,11,14.10
2019,07,26,11,12,14.10
2019,07,26,11,13,14.10
2019,07,26,11,14,14.10
2019,07,26,11,15,14.00
2019,07,26,11,16,14.00
2019,07,26,11,17,14.00
2019,07,26,11,18,14.10
2019,07,26,11,19,14.10
2019,07,26,11,20,14.10
2019,07,26,11,21,14.10
2019,07,26,11,22,14.10
2019,07,26,11,23,14.10
2019,07,26,11,24,14.20
2019,07,26,11,25,14.20
2019,07,26,11,26,14.20
2019,07,26,11,27,14.20
2019,07,26,11,28,14.20
2019,07,26,11,29,14.20
2019,07,26,11,30,14.20
2019,07,26,11,31,14.20
2019,07,26,11,32,14.20
2019,07,26,11,33,14.30
2019,07,26,11,34,14.40
2019,07,26,11,35,14.50
2019,07,26,11,36,14.50
2019,07,26,11,37,14.60
2019,07,26,11,38,14.70
2019,07,26,11,39,14.80
2019,07,26,11,40,14.80
2019,07,26,11,41,14.80
2019,07,26,11,42,14.80
2019,07,26,11,43,14.80
2019,07,26,11,44,14.80
2019,07,26,11,45,14.90
2019,07,26,11,46,14.80
2019,07,26,11,47,14.80
2019,07,26,11,48,14.90
2019,07,26,11,49,14.90
2019,07,26,11,50,15.00
2019,07,26,11,51,15.10
2019,07,26,11,52,15.20
2019,07,26,11,53,15.30
2019,07,26,11,54,15.40
2019,07,26,11,55,15.50
2019,07,26,11,56,15.60
2019,07,26,11,57,15.70
2019,07,26,11,58,15.80
2019,07,26,11,59,15.90
2019,07,26,12,00,16.00
2019,07,26,12,01,16.20
2019,07,26,12,02,16.40
2019,07,26,12,03,16.50
2019,07,26,12,04,16.60
2019,07,26,12,05,16.80
2019,07,26,12,06,17.00
2019,07,26,12,07,17.20
2019,07,26,12,08,17.30
2019,07,26,12,09,17.50
2019,07,26,12,10,17.60
2019,07,26,12,11,17.70
2019,07,26,12,12,17.90
2019,07,26,12,13,18.00
2019,07,26,12,14,18.20
2019,07,26,12,15,18.40
2019,07,26,12,16,18.40
2019,07,26,12,17,18.40
2019,07,26,12,18,18.30
2019,07,26,12,19,18.20
2019,07,26,12,20,18.10
2019,07,26,12,21,18.20
2019,07,26,12,22,18.30
2019,07,26,12,23,18.40
2019,07,26,12,24,18.50
2019,07,26,12,25,18.50
2019,07,26,12,26,18.50
2019,07,26,12,27,18.50
2019,07,26,12,28,18.30
2019,07,26,12,29,18.00
2019,07,26,12,30,17.60
2019,07,26,12,31,17.20
2019,07,26,12,32,16.80
2019,07,26,12,33,16.40
2019,07,26,12,34,16.10
2019,07,26,12,35,15.70
2019,07,26,12,36,15.40
2019,07,26,12,37,15.20
2019,07,26,12,38,15.00
2019,07,26,12,39,14.90
2019,07,26,12,40,14.80
2019,07,26,12,41,14.70
2019,07,26,12,42,14.70
2019,07,26,12,43,14.60
2019,07,26,12,44,14.50
2019,07,26,12,45,14.50
2019,07,26,12,46,14.50
2019,07,26,12,47,14.60
2019,07,26,12,48,14.60
2019,07,26,12,49,14.70
2019,07,26,12,50,14.70
2019,07,26,12,51,14.80
2019,07,26,12,52,14.90
2019,07,26,12,53,14.90
2019,07,26,12,54,14.90
2019,07,26,12,55,14.90
2019,07,26,12,56,14.90
2019,07,26,12,57,14.80
2019,07,26,12,58,14.80
2019,07,26,12,59,14.80
2019,07,26,13,00,14.70
2019,07,26,13,01,14.80
2019,07,26,13,02,14.80
2019,07,26,13,03,14.90
2019,07,26,13,04,14.90
2019,07,26,13,05,15.00
2019,07,26,13,06,15.10
2019,07,26,13,07,15.20
2019,07,26,13,08,15.70
2019,07,26,13,09,16.20
2019,07,26,13,10,16.70
2019,07,26,13,11,17.20
2019,07,26,13,12,17.50
2019,07,26,13,13,17.60
2019,07,26,13,14,17.60
2019,07,26,13,15,17.60
2019,07,26,13,16,17.60
2019,07,26,13,17,18.30
2019,07,26,13,18,19.70
2019,07,26,13,19,20.00
2019,07,26,13,20,20.30
2019,07,26,13,21,20.60
2019,07,26,13,22,20.80
2019,07,26,13,23,21.00
2019,07,26,13,24,21.00
2019,07,26,13,25,20.90
2019,07,26,13,26,20.90
2019,07,26,13,27,20.90
2019,07,26,13,28,20.90
2019,07,26,13,29,21.10
2019,07,26,13,30,21.30
2019,07,26,13,31,21.50
2019,07,26,13,32,21.70
2019,07,26,13,33,21.90
2019,07,26,13,34,22.00
2019,07,26,13,35,22.20
2019,07,26,13,36,22.30
2019,07,26,13,37,22.30
2019,07,26,13,38,22.10
2019,07,26,13,39,21.90
2019,07,26,13,40,21.70
2019,07,26,13,41,21.50
2019,07,26,13,42,21.40
2019,07,26,13,43,21.40
2019,07,26,13,44,21.30
2019,07,26,13,45,21.30
2019,07,26,13,46,21.40
2019,07,26,13,47,21.50
2019,07,26,13,48,21.70
2019,07,26,13,49,21.90
2019,07,26,13,50,22.10
2019,07,26,13,51,22.20
2019,07,26,13,52,22.40
2019,07,26,13,53,22.60
2019,07,26,13,54,22.80
2019,07,26,13,55,22.90
2019,07,26,13,56,23.00
2019,07,26,13,57,23.10
2019,07,26,13,58,23.10
2019,07,26,13,59,23.20
2019,07,26,14,00,23.30
2019,07,26,14,01,23.40
2019,07,26,14,02,23.40
2019,07,26,14,03,23.50
2019,07,26,14,04,23.50
2019,07,26,14,05,23.60
2019,07,26,14,06,23.70
2019,07,26,14,07,23.70
2019,07,26,14,08,23.80
2019,07,26,14,09,23.80
2019,07,26,14,10,23.80
2019,07,26,14,11,23.90
2019,07,26,14,12,24.00
2019,07,26,14,13,24.00
2019,07,26,14,14,24.00
2019,07,26,14,15,24.00
2019,07,26,14,16,24.00
2019,07,26,14,17,24.10
2019,07,26,14,18,24.10
2019,07,26,14,19,24.10
2019,07,26,14,20,24.10
2019,07,26,14,21,24.20
2019,07,26,14,22,24.20
2019,07,26,14,23,24.20
2019,07,26,14,24,24.20
2019,07,26,14,25,24.30
2019,07,26,14,26,24.30
2019,07,26,14,27,24.30
2019,07,26,14,28,24.30
2019,07,26,14,29,24.30
2019,07,26,14,30,24.30
2019,07,26,14,31,24.30
2019,07,26,14,32,24.40
2019,07,26,14,33,24.40
2019,07,26,14,34,24.40
2019,07,26,14,35,24.40
2019,07,26,14,36,24.50
2019,07,26,14,37,24.50
2019,07,26,14,38,24.60
2019,07,26,14,39,24.70
2019,07,26,14,40,24.80
2019,07,26,14,41,24.90
2019,07,26,14,42,25.00
2019,07,26,14,43,25.00
2019,07,26,14,44,25.10
2019,07,26,14,45,25.20
2019,07,26,14,46,25.20
2019,07,26,14,47,25.30
2019,07,26,14,48,25.30
2019,07,26,14,49,25.40
2019,07,26,14,50,25.50
2019,07,26,14,51,25.60
2019,07,26,14,52,25.70
2019,07,26,14,53,25.80
2019,07,26,14,54,25.80
2019,07,26,14,55,25.80
2019,07,26,14,56,25.80
2019,07,26,14,57,25.80
2019,07,26,14,58,25.80
2019,07,26,14,59,25.90
2019,07,26,15,00,25.90
2019,07,26,15,01,25.90
2019,07,26,15,02,26.00
2019,07,26,15,03,26.00
2019,07,26,15,04,26.00
2019,07,26,15,05,26.00
2019,07,26,15,06,26.00
2019,07,26,15,07,26.00
2019,07,26,15,08,26.10
2019,07,26,15,09,26.00
2019,07,26,15,10,26.00
2019,07,26,15,11,26.00
2019,07,26,15,12,26.00
2019,07,26,15,13,26.10
2019,07,26,15,14,26.10
2019,07,26,15,15,26.20
2019,07,26,15,16,26.20
2019,07,26,15,17,26.20
2019,07,26,15,18,26.20
2019,07,26,15,19,26.20
2019,07,26,15,20,26.20
2019,07,26,15,21,26.10
2019,07,26,15,22,26.10
2019,07,26,15,23,26.10
2019,07,26,15,24,26.10
2019,07,26,15,25,26.10
2019,07,26,15,26,26.20
2019,07,26,15,27,26.20
2019,07,26,15,28,26.20
2019,07,26,15,29,26.20
2019,07,26,15,30,26.20
2019,07,26,15,31,26.20
2019,07,26,15,32,26.20
2019,07,26,15,33,26.20
2019,07,26,15,34,26.10
2019,07,26,15,35,26.10
2019,07,26,15,36,26.10
2019,07,26,15,37,26.00
2019,07,26,15,38,26.00
2019,07,26,15,39,25.90
2019,07,26,15,40,25.80
2019,07,26,15,41,25.80
2019,07,26,15,42,25.70
2019,07,26,15,43,25.70
2019,07,26,15,44,25.70
2019,07,26,15,45,25.70
2019,07,26,15,46,25.70
2019,07,26,15,47,25.70
2019,07,26,15,48,25.70
2019,07,26,15,49,25.70
2019,07,26,15,50,25.80
2019,07,26,15,51,25.80
2019,07,26,15,52,25.80
2019,07,26,15,53,25.80
2019,07,26,15,54,25.80
2019,07,26,15,55,25.80
2019,07,26,15,56,25.80
2019,07,26,15,57,25.80
2019,07,26,15,58,25.80
2019,07,26,15,59,25.80
2019,07,26,16,00,25.80
2019,07,26,16,01,25.80
2019,07,26,16,02,25.70
2019,07,26,16,03,25.70
2019,07,26,16,04,25.70
2019,07,26,16,05,25.70
2019,07,26,16,06,25.70
2019,07,26,16,07,25.70
2019,07,26,16,08,25.80
2019,07,26,16,09,25.80
2019,07,26,16,10,25.70
2019,07,26,16,11,25.70
2019,07,26,16,12,25.70
2019,07,26,16,13,25.80
2019,07,26,16,14,25.80
2019,07,26,16,15,25.80
2019,07,26,16,16,25.80
2019,07,26,16,17,25.80
2019,07,26,16,18,25.80
2019,07,26,16,19,25.80
2019,07,26,16,20,25.80
2019,07,26,16,21,25.80
2019,07,26,16,22,25.80
2019,07,26,16,23,25.90
2019,07,26,16,24,25.90
2019,07,26,16,25,25.90
2019,07,26,16,26,25.90
2019,07,26,16,27,25.90
2019,07,26,16,28,25.90
2019,07,26,16,29,25.90
2019,07,26,16,30,25.90
2019,07,26,16,31,25.90
2019,07,26,16,32,25.90
2019,07,26,16,33,25.90
2019,07,26,16,34,25.90
2019,07,26,16,35,25.90
2019,07,26,16,36,25.90
2019,07,26,16,37,25.90
2019,07,26,16,38,25.90
2019,07,26,16,39,25.90
2019,07,26,16,40,26.00
2019,07,26,16,41,25.90
2019,07,26,16,42,25.90
2019,07,26,16,43,25.90
2019,07,26,16,44,26.00
2019,07,26,16,45,26.10
2019,07,26,16,46,26.10
2019,07,26,16,47,26.10
2019,07,26,16,48,26.10
2019,07,26,16,49,26.10
2019,07,26,16,50,26.10
2019,07,26,16,51,26.20
2019,07,26,16,52,26.20
2019,07,26,16,53,26.30
2019,07,26,16,54,26.30
2019,07,26,16,55,26.30
2019,07,26,16,56,26.30
2019,07,26,16,57,26.30
2019,07,26,16,58,26.30
2019,07,26,16,59,26.30
2019,07,26,17,00,26.40
2019,07,26,17,01,26.30
2019,07,26,17,02,26.30
2019,07,26,17,03,26.20
2019,07,26,17,04,26.10
2019,07,26,17,05,26.10
2019,07,26,17,06,26.10
2019,07,26,17,07,26.00
2019,07,26,17,08,25.90
2019,07,26,17,09,25.90
2019,07,26,17,10,25.80
2019,07,26,17,11,25.90
2019,07,26,17,12,25.90
2019,07,26,17,13,25.90
2019,07,26,17,14,25.90
2019,07,26,17,15,25.90
2019,07,26,17,16,25.90
2019,07,26,17,17,25.80
2019,07,26,17,18,25.80
2019,07,26,17,19,25.80